ORBCOMM FM08 1 25112C 97084A 12042.45054784 .00000000 00000-0 00000-0 0 22259 2 25112 045.0175 109.0646 0010826 246.9680 113.0106 14.35114722739442 ORBCOMM FM12 1 25115C 97084D 12041.76421038 .00000000 00000-0 00000-0 0 21917 2 25115 045.0175 112.5184 0007866 225.1902 134.8314 14.35123473739341 ORBCOMM FM09 1 25116C 97084E 12041.98180430 .00000000 00000-0 00000-0 0 21909 2 25116 045.0190 111.9308 0007535 214.8412 145.1931 14.35107080739373 ORBCOMM FM05 1 25117C 97084F 12042.99004091 .00000000 00000-0 00000-0 0 22125 2 25117 45.0177 107.4219 0005131 243.2975 116.7348 14.35116146739504 ORBCOMM FM06 1 25118C 97084G 12042.49472984 .00000000 00000-0 00000-0 0 22536 2 25118 045.0182 109.6080 0004389 244.9595 115.0790 14.35129746739447 ORBCOMM FM07 1 25119C 97084H 12042.99808808 .00000000 00000-0 00000-0 0 22361 2 25119 45.0176 107.4466 0006119 235.8082 124.2186 14.35125259739512 ORBCOMM FM18 1 25414C 98046B 12042.98726260 .00000000 00000-0 00000-0 0 20995 2 25414 44.9966 54.8123 0001929 158.9110 201.1815 14.29629716705361 ORBCOMM FM19 1 25415C 98046C 12041.87846827 .00000000 00000-0 00000-0 0 20995 2 25415 044.9963 060.1958 0000714 120.2548 239.8369 14.29636406705202 ORBCOMM FM15 1 25418C 98046F 12042.95802123 .00000000 00000-0 00000-0 0 20988 2 25418 45.0004 56.7573 0002652 194.8365 165.2401 14.29617142705355 ORBCOMM FM14 1 25419C 98046G 12042.96723920 .00000000 00000-0 00000-0 0 21001 2 25419 44.9998 56.6139 0001492 233.3102 126.7605 14.29623492705355 ORBCOMM FM13 1 25420C 98046H 12042.97715010 .00000000 00000-0 00000-0 0 21049 2 25420 45.0005 56.9848 0002229 182.3382 177.7453 14.29616836705351 ORBCOMM FM22 1 25476C 98053B 12042.46863079 .00000000 00000-0 00000-0 0 20893 2 25476 045.0104 143.0969 0002579 153.1053 206.9930 14.29767479698472 ORBCOMM FM23 1 25477C 98053C 12042.94077426 .00000000 00000-0 00000-0 0 20902 2 25477 45.0095 140.5696 0002350 153.6387 206.4578 14.29755106698548 ORBCOMM FM24 1 25478C 98053D 12041.74363956 .00000000 00000-0 00000-0 0 20883 2 25478 045.0111 146.4696 0001858 178.6392 181.4459 14.29716356698373 ORBCOMM FM25 1 25479C 98053E 12042.97575784 .00000000 00000-0 00000-0 0 20929 2 25479 45.0095 140.1438 0004041 152.5454 207.5605 14.29771883698556 ORBCOMM FM27 1 25481C 98053G 12042.29469088 .00000000 00000-0 00000-0 0 20904 2 25481 045.0087 142.9705 0001364 190.6715 169.4116 14.29624727698451 ORBCOMM FM30 1 25980C 99065A 12042.95308943 .00000000 00000-0 00000-0 0 20143 2 25980 45.0331 307.4729 0004508 301.1099 58.9304 14.29592722636001 ORBCOMM FM31 1 25981C 99065B 12042.02994546 .00000000 00000-0 00000-0 0 20232 2 25981 045.0257 308.7698 0004557 300.8697 059.1668 14.29599407635879 ORBCOMM FM33 1 25983C 99065D 12042.96295562 .00000000 00000-0 00000-0 0 20262 2 25983 45.0310 303.1358 0008216 225.3124 134.7053 14.31786401636059 ORBCOMM FM36 1 25984C 99065E 12041.80704121 .00000000 00000-0 00000-0 0 20227 2 25984 045.0413 314.5707 0002414 189.0917 170.9892 14.29608382635845 ORBCOMM FM35 1 25985C 99065F 12042.07284849 .00000000 00000-0 00000-0 0 20240 2 25985 045.0431 314.3955 0003402 308.2130 051.8407 14.29596740635886 ORBCOMM FM39 1 33063C 08031D 12042.35878183 .00000000 00000-0 00000-0 0 13107 2 33063 048.4419 229.8196 0009767 169.6509 190.4603 14.68936207195744